ANA753 RJTT-RJNK

Flight info

Callsign ANA753
Flight time 0h 41m
Altitude 28000
Route BEKLA5C BEKLA Y884 KMC
Aircraft A21N/M-V/N

Departure

Time 2026-05-06 14:03
Airport Tokyo Haneda International Airport (RJTT)

Arrival

Time 2026-05-06 14:45
Airport Komatsu Airport / JASDF Komatsu Air Base (RJNK)
Time Latitude Longitude Altitude Speed Heading
2026-05-06 13:27 35.55155 139.78946 33 ft 0 kts 240°
2026-05-06 13:47 35.55157 139.78950 33 ft 2 kts 239°
2026-05-06 13:47 35.55166 139.78967 32 ft 2 kts 232°
2026-05-06 13:47 35.55177 139.78982 32 ft 2 kts 224°
2026-05-06 13:48 35.55190 139.78995 32 ft 2 kts 212°
2026-05-06 13:48 35.55205 139.79004 32 ft 2 kts 195°
2026-05-06 13:48 35.55221 139.79007 32 ft 2 kts 176°
2026-05-06 13:48 35.55238 139.79004 33 ft 2 kts 163°
2026-05-06 13:49 35.55252 139.78997 33 ft 2 kts 154°
2026-05-06 13:49 35.55256 139.78995 33 ft 0 kts 152°
2026-05-06 13:53 35.55251 139.79000 33 ft 3 kts 142°
2026-05-06 13:53 35.55222 139.79059 33 ft 9 kts 94°
2026-05-06 13:53 35.55243 139.79133 32 ft 10 kts 60°
2026-05-06 13:54 35.55280 139.79212 32 ft 11 kts 60°
2026-05-06 13:54 35.55295 139.79306 32 ft 13 kts 117°
2026-05-06 13:54 35.55246 139.79352 32 ft 14 kts 150°
2026-05-06 13:54 35.55158 139.79412 32 ft 15 kts 148°
2026-05-06 13:55 35.55076 139.79472 33 ft 13 kts 150°
2026-05-06 13:55 35.55001 139.79526 32 ft 10 kts 150°
2026-05-06 13:55 35.54936 139.79571 31 ft 11 kts 150°
2026-05-06 13:55 35.54885 139.79607 31 ft 0 kts 150°
2026-05-06 13:57 35.54878 139.79612 31 ft 3 kts 148°
2026-05-06 13:57 35.54844 139.79637 31 ft 8 kts 149°
2026-05-06 13:58 35.54783 139.79682 31 ft 12 kts 149°
2026-05-06 13:58 35.54697 139.79744 30 ft 16 kts 149°
2026-05-06 13:58 35.54596 139.79815 30 ft 17 kts 150°
2026-05-06 13:58 35.54527 139.79863 28 ft 12 kts 150°
2026-05-06 13:59 35.54453 139.79914 28 ft 13 kts 150°
2026-05-06 13:59 35.54371 139.79972 27 ft 14 kts 149°
2026-05-06 13:59 35.54322 139.80007 27 ft 8 kts 149°
2026-05-06 13:59 35.54278 139.80051 27 ft 10 kts 122°
2026-05-06 14:00 35.54273 139.80109 28 ft 5 kts 73°
2026-05-06 14:00 35.54281 139.80126 28 ft 0 kts 58°
2026-05-06 14:01 35.54294 139.80152 29 ft 6 kts 58°
2026-05-06 14:01 35.54343 139.80220 32 ft 8 kts 24°
2026-05-06 14:02 35.54394 139.80210 33 ft 4 kts 334°
2026-05-06 14:02 35.54396 139.80208 33 ft 0 kts 332°
2026-05-06 14:02 35.54445 139.80176 33 ft 32 kts 331°
2026-05-06 14:03 35.54854 139.79889 34 ft 104 kts 329°
2026-05-06 14:03 35.55669 139.79309 33 ft 163 kts 329°
2026-05-06 14:03 35.56704 139.78545 392 ft 172 kts 327°
2026-05-06 14:03 35.57713 139.77780 962 ft 172 kts 327°
2026-05-06 14:04 35.58865 139.77372 1441 ft 178 kts
2026-05-06 14:04 35.59933 139.78081 1864 ft 179 kts 56°
2026-05-06 14:04 35.60298 139.79487 2263 ft 174 kts 91°
2026-05-06 14:04 35.60446 139.80983 2732 ft 179 kts 84°
2026-05-06 14:05 35.60744 139.82485 3151 ft 184 kts 78°
2026-05-06 14:05 35.61024 139.84075 3442 ft 198 kts 90°
2026-05-06 14:05 35.61018 139.85817 3803 ft 211 kts 96°
2026-05-06 14:05 35.60983 139.87603 4245 ft 223 kts 95°
2026-05-06 14:06 35.60953 139.89550 4735 ft 234 kts 94°
2026-05-06 14:06 35.60952 139.91619 5136 ft 252 kts 89°
2026-05-06 14:06 35.61399 139.93787 5419 ft 275 kts 63°
2026-05-06 14:06 35.62671 139.95605 5827 ft 289 kts 32°
2026-05-06 14:07 35.64532 139.96497 6456 ft 289 kts
2026-05-06 14:07 35.66545 139.96638 7177 ft 290 kts 357°
2026-05-06 14:07 35.68564 139.96672 7886 ft 292 kts 356°
2026-05-06 14:07 35.70582 139.96458 8576 ft 290 kts 340°
2026-05-06 14:08 35.72380 139.95440 9249 ft 282 kts 317°
2026-05-06 14:08 35.73686 139.93703 9928 ft 275 kts 296°
2026-05-06 14:08 35.74387 139.91518 10355 ft 280 kts 278°
2026-05-06 14:08 35.74668 139.89071 10603 ft 297 kts 274°
2026-05-06 14:09 35.74915 139.86472 10831 ft 315 kts 274°
2026-05-06 14:09 35.75197 139.83724 11040 ft 333 kts 275°
2026-05-06 14:09 35.75519 139.80829 11239 ft 349 kts 276°
2026-05-06 14:09 35.75869 139.77807 11488 ft 363 kts 276°
2026-05-06 14:10 35.76227 139.74739 11944 ft 369 kts 276°
2026-05-06 14:10 35.76742 139.71618 12474 ft 375 kts 283°
2026-05-06 14:10 35.77498 139.68525 13017 ft 378 kts 285°
2026-05-06 14:10 35.78285 139.65424 13556 ft 382 kts 285°
2026-05-06 14:11 35.79082 139.62289 14062 ft 385 kts 285°
2026-05-06 14:11 35.79877 139.59120 14542 ft 388 kts 285°
2026-05-06 14:11 35.80682 139.55896 15043 ft 390 kts 285°
2026-05-06 14:11 35.81471 139.52724 15537 ft 393 kts 285°
2026-05-06 14:12 35.82266 139.49499 16025 ft 395 kts 284°
2026-05-06 14:12 35.82817 139.46184 16517 ft 396 kts 274°
2026-05-06 14:12 35.82938 139.42795 17025 ft 397 kts 270°
2026-05-06 14:12 35.82972 139.39381 17528 ft 399 kts 270°
2026-05-06 14:13 35.83003 139.35942 18016 ft 402 kts 270°
2026-05-06 14:13 35.83045 139.32490 18484 ft 405 kts 270°
2026-05-06 14:13 35.83094 139.29014 18927 ft 406 kts 270°
2026-05-06 14:13 35.83145 139.25537 19388 ft 406 kts 270°
2026-05-06 14:14 35.83194 139.22056 19857 ft 406 kts 270°
2026-05-06 14:14 35.83285 139.18583 20296 ft 407 kts 273°
2026-05-06 14:14 35.83755 139.15131 20753 ft 410 kts 282°
2026-05-06 14:14 35.84597 139.11775 21175 ft 411 kts 285°
2026-05-06 14:15 35.85504 139.08425 21613 ft 413 kts 285°
2026-05-06 14:15 35.86412 139.05059 22044 ft 414 kts 285°
2026-05-06 14:15 35.87308 139.01687 22454 ft 416 kts 285°
2026-05-06 14:15 35.88203 138.98286 22855 ft 418 kts 284°
2026-05-06 14:16 35.89104 138.94868 23246 ft 420 kts 285°
2026-05-06 14:16 35.90008 138.91434 23655 ft 422 kts 284°
2026-05-06 14:16 35.90912 138.87989 23989 ft 423 kts 284°
2026-05-06 14:16 35.91819 138.84525 24292 ft 425 kts 284°
2026-05-06 14:17 35.92726 138.81046 24625 ft 426 kts 284°
2026-05-06 14:17 35.93633 138.77575 25066 ft 424 kts 284°
2026-05-06 14:17 35.94537 138.74115 25535 ft 421 kts 284°
2026-05-06 14:17 35.95430 138.70680 26000 ft 417 kts 283°
2026-05-06 14:18 35.96311 138.67293 26499 ft 413 kts 283°
2026-05-06 14:18 35.97186 138.63925 26981 ft 410 kts 283°
2026-05-06 14:18 35.98055 138.60578 27439 ft 408 kts 283°
2026-05-06 14:18 35.98918 138.57249 27877 ft 406 kts 282°
2026-05-06 14:19 35.99775 138.53939 28178 ft 405 kts 282°
2026-05-06 14:19 36.00629 138.50612 28242 ft 407 kts 282°
2026-05-06 14:19 36.02349 138.43934 28210 ft 408 kts 283°
2026-05-06 14:20 36.04086 138.37193 28199 ft 409 kts 283°
2026-05-06 14:20 36.05782 138.30473 28191 ft 411 kts 283°
2026-05-06 14:21 36.07487 138.23710 28194 ft 412 kts 283°
2026-05-06 14:21 36.09234 138.16947 28188 ft 414 kts 284°
2026-05-06 14:22 36.10986 138.10152 28187 ft 415 kts 284°
2026-05-06 14:22 36.12705 138.03392 27702 ft 412 kts 284°
2026-05-06 14:23 36.13559 138.00003 26975 ft 412 kts 285°
2026-05-06 14:23 36.14419 137.96586 26419 ft 421 kts 285°
2026-05-06 14:23 36.15295 137.93113 26106 ft 425 kts 285°
2026-05-06 14:23 36.15986 137.89555 25843 ft 426 kts 280°
2026-05-06 14:24 36.16579 137.85947 25598 ft 428 kts 281°
2026-05-06 14:24 36.17164 137.82382 25365 ft 430 kts 281°
2026-05-06 14:24 36.17760 137.78748 25133 ft 432 kts 281°
2026-05-06 14:24 36.18361 137.75090 24891 ft 434 kts 281°
2026-05-06 14:25 36.18967 137.71420 24655 ft 436 kts 281°
2026-05-06 14:25 36.19575 137.67737 24427 ft 438 kts 281°
2026-05-06 14:25 36.20186 137.63998 24201 ft 436 kts 281°
2026-05-06 14:25 36.20778 137.60318 23984 ft 436 kts 281°
2026-05-06 14:26 36.21371 137.56649 23772 ft 435 kts 281°
2026-05-06 14:26 36.21960 137.53041 23525 ft 434 kts 281°
2026-05-06 14:26 36.22557 137.49374 23241 ft 433 kts 281°
2026-05-06 14:26 36.23146 137.45728 22974 ft 431 kts 281°
2026-05-06 14:27 36.23730 137.42086 22699 ft 430 kts 281°
2026-05-06 14:27 36.24312 137.38466 22437 ft 427 kts 281°
2026-05-06 14:27 36.24878 137.34923 22165 ft 411 kts 281°
2026-05-06 14:27 36.25428 137.31513 21894 ft 395 kts 281°
2026-05-06 14:28 36.25950 137.28235 21629 ft 381 kts 281°
2026-05-06 14:28 36.26445 137.25067 21370 ft 368 kts 281°
2026-05-06 14:28 36.26928 137.22005 21100 ft 356 kts 281°
2026-05-06 14:28 36.27534 137.19080 20829 ft 345 kts 293°
2026-05-06 14:29 36.28859 137.16659 20567 ft 340 kts 311°
2026-05-06 14:29 36.30327 137.14248 20332 ft 362 kts 296°
2026-05-06 14:29 36.31090 137.11199 20112 ft 384 kts 277°
2026-05-06 14:29 36.31032 137.07808 19900 ft 405 kts 262°
2026-05-06 14:30 36.30505 137.04298 19445 ft 419 kts 261°
2026-05-06 14:30 36.30342 137.00713 18780 ft 415 kts 274°
2026-05-06 14:30 36.30732 136.97196 18058 ft 410 kts 280°
2026-05-06 14:30 36.31296 136.93741 17332 ft 409 kts 281°
2026-05-06 14:31 36.31878 136.90284 16641 ft 408 kts 281°
2026-05-06 14:31 36.32454 136.86852 15948 ft 407 kts 281°
2026-05-06 14:31 36.32828 136.84576 15494 ft 407 kts 280°
2026-05-06 14:31 36.33552 136.79975 14573 ft 406 kts 279°
2026-05-06 14:32 36.34087 136.76542 13880 ft 403 kts 279°
2026-05-06 14:32 36.34436 136.74287 13355 ft 400 kts 279°
2026-05-06 14:32 36.34955 136.70930 12633 ft 393 kts 279°
2026-05-06 14:32 36.35461 136.67623 11974 ft 387 kts 279°
2026-05-06 14:33 36.35960 136.64405 11589 ft 374 kts 279°
2026-05-06 14:33 36.36442 136.61294 11345 ft 359 kts 279°
2026-05-06 14:33 36.36904 136.58322 11134 ft 344 kts 279°
2026-05-06 14:33 36.37344 136.55470 10944 ft 329 kts 279°
2026-05-06 14:34 36.37764 136.52741 10765 ft 315 kts 279°
2026-05-06 14:34 36.38163 136.50127 10590 ft 301 kts 279°
2026-05-06 14:34 36.38546 136.47629 10368 ft 288 kts 279°
2026-05-06 14:34 36.38917 136.45213 9983 ft 284 kts 280°
2026-05-06 14:35 36.39529 136.42885 9454 ft 286 kts 296°
2026-05-06 14:35 36.40793 136.40977 8931 ft 290 kts 320°
2026-05-06 14:35 36.42603 136.39852 8421 ft 295 kts 343°
2026-05-06 14:35 36.44625 136.39448 8001 ft 294 kts 352°
2026-05-06 14:36 36.46649 136.39182 7538 ft 294 kts 352°
2026-05-06 14:36 36.48651 136.38903 7090 ft 293 kts 351°
2026-05-06 14:36 36.50665 136.38598 6686 ft 291 kts 351°
2026-05-06 14:36 36.52685 136.38348 6228 ft 292 kts 359°
2026-05-06 14:37 36.54646 136.38886 5805 ft 291 kts 27°
2026-05-06 14:37 36.56144 136.40513 5382 ft 286 kts 58°
2026-05-06 14:37 36.56920 136.42751 5013 ft 282 kts 76°
2026-05-06 14:37 36.57463 136.45093 4622 ft 283 kts 77°
2026-05-06 14:38 36.57975 136.47456 4220 ft 282 kts 79°
2026-05-06 14:38 36.58433 136.49830 3822 ft 280 kts 79°
2026-05-06 14:38 36.58875 136.52182 3440 ft 278 kts 82°
2026-05-06 14:38 36.58871 136.54525 3051 ft 269 kts 107°
2026-05-06 14:39 36.58047 136.56546 2714 ft 259 kts 134°
2026-05-06 14:39 36.56659 136.57823 2558 ft 241 kts 159°
2026-05-06 14:39 36.55106 136.58388 2550 ft 227 kts 169°
2026-05-06 14:39 36.53557 136.58800 2555 ft 228 kts 169°
2026-05-06 14:40 36.52020 136.59225 2560 ft 220 kts 170°
2026-05-06 14:40 36.50570 136.59303 2547 ft 202 kts 190°
2026-05-06 14:40 36.49313 136.58569 2548 ft 203 kts 223°
2026-05-06 14:40 36.48454 136.57201 2564 ft 194 kts 236°
2026-05-06 14:41 36.47795 136.55864 2602 ft 170 kts 237°
2026-05-06 14:41 36.47173 136.54657 2423 ft 162 kts 235°
2026-05-06 14:41 36.46554 136.53526 2213 ft 152 kts 233°
2026-05-06 14:41 36.45986 136.52508 1990 ft 139 kts 234°
2026-05-06 14:42 36.45443 136.51517 1782 ft 139 kts 233°
2026-05-06 14:42 36.44876 136.50550 1619 ft 139 kts 232°
2026-05-06 14:42 36.44301 136.49591 1447 ft 138 kts 232°
2026-05-06 14:42 36.43740 136.48624 1289 ft 138 kts 233°
2026-05-06 14:43 36.43201 136.47639 1087 ft 138 kts 234°
2026-05-06 14:43 36.42668 136.46648 912 ft 138 kts 234°
2026-05-06 14:43 36.42129 136.45658 714 ft 138 kts 233°
2026-05-06 14:43 36.41572 136.44681 576 ft 140 kts 233°
2026-05-06 14:44 36.41019 136.43690 410 ft 140 kts 233°
2026-05-06 14:44 36.40469 136.42694 226 ft 140 kts 234°
2026-05-06 14:44 36.39917 136.41696 67 ft 140 kts 234°
2026-05-06 14:45 36.39003 136.40048 34 ft 73 kts 235°
2026-05-06 14:45 36.38850 136.39776 36 ft 23 kts 235°
2026-05-06 14:45 36.38780 136.39651 37 ft 13 kts 236°
2026-05-06 14:45 36.38753 136.39544 34 ft 14 kts 271°
2026-05-06 14:46 36.38820 136.39460 33 ft 15 kts 327°
2026-05-06 14:46 36.38922 136.39433 36 ft 17 kts 37°
2026-05-06 14:46 36.38996 136.39560 36 ft 19 kts 56°
2026-05-06 14:46 36.39073 136.39699 35 ft 20 kts 56°
2026-05-06 14:47 36.39156 136.39849 33 ft 21 kts 55°
2026-05-06 14:47 36.39243 136.40004 32 ft 22 kts 55°
2026-05-06 14:47 36.39333 136.40166 31 ft 24 kts 55°
2026-05-06 14:47 36.39429 136.40339 33 ft 25 kts 55°
2026-05-06 14:48 36.39528 136.40517 35 ft 25 kts 55°
2026-05-06 14:48 36.39628 136.40698 36 ft 26 kts 56°
2026-05-06 14:48 36.39721 136.40866 34 ft 23 kts 55°
2026-05-06 14:48 36.39812 136.41031 32 ft 24 kts 56°
2026-05-06 14:49 36.39896 136.41183 31 ft 15 kts 56°
2026-05-06 14:49 36.39959 136.41294 32 ft 12 kts 55°
2026-05-06 14:49 36.40009 136.41383 31 ft 13 kts 55°
2026-05-06 14:49 36.40061 136.41475 34 ft 8 kts 55°
2026-05-06 14:50 36.40112 136.41467 33 ft 10 kts 327°
2026-05-06 14:50 36.40143 136.41445 31 ft 1 kts 330°
2026-05-06 14:50 36.40149 136.41440 31 ft 0 kts 325°